Tracking 19212 objects as of 16-Jul-2018
HD Live streaming from Space Station
objects crossing your sky now

ITALSAT 1

Track ITALSAT 1 now!
ITALSAT 1 is classified as:


NORAD ID: 21055
Int'l Code: 1991-003A
Perigee: 35,815.0 km
Apogee: 35,938.2 km
Inclination: 14.8 °
Period: 1,440.3 minutes
Semi major axis: 42247 km
RCS: 3.4358 m2 (large)
Launch date: January 15, 1991
Source: Italy (IT)
Launch site: FRENCH GUIANA (FRGUI)
aabbcc
Your satellite tracking list
Your tracking list is empty




NASA's NSSDC Master Catalog

Two Line Element Set (TLE):
1 21055U 91003A   18196.73130866 -.00000069 +00000-0 +00000-0 0  9991
2 21055 014.8314 015.7914 0014587 337.4451 020.5463 00.99977000088158
Source of the keplerian elements: AFSPC